Tracking 25710 objects as of 6-Jul-2022
HD Live streaming from Space Station
objects crossing your sky now

FENGYUN 1C DEB

Track FENGYUN 1C DEB now!
10-day predictions


NORAD ID: 38726
Int'l Code: 1999-025ETT
Perigee: 746.4 km
Apogee: 864.2 km
Inclination: 99.2 °
Period: 100.8 minutes
Semi major axis: 7176 km
RCS: 0.003 m2 (small)
Launch date: May 10, 1999
Source: People's Republic of China (PRC)
Launch site: Taiyaun Space Center, China (TSC)

Note: This is SATELLITE DEBRIS
aabbcc
Your satellite tracking list
Your tracking list is empty




NASA's NSSDC Master Catalog

Two Line Element Set (TLE):
1 38726U 99025ETT 22185.98511622  .00002048  00000-0  81390-3 0  9991
2 38726  99.1539  86.0821 0082084 299.6865  59.6161 14.28085928516418
Source of the keplerian elements: AFSPC